Location: Newark
(60.6561°N, 46.5772°E)
Time: 12:24:18
(UTC+00:00)

Tiros 1 despin weight - Pass Details

Date: 21 October 2019
Orbit: 594 x 642 km, 48.2° (Epoch: 16 November)

Event Time Altitude Azimuth Distance (km) Brightness Sun altitude
Rises 23:17:22 0° 233° (SW) 2,937 - -32.3°
Reaches altitude 10° 23:20:21 10° 214° (SW) 2,032 - -32.0°
Maximum altitude 23:23:24 17° 173° (S) 1,601 - -31.7°
Drops below altitude 10° 23:26:28 10° 133° (SE) 2,036 - -31.4°
Exits shadow 23:27:26 - 125° (SE) 2,301 ? -31.4°
Sets 23:29:27 0° 114° (ESE) 2,944 ? -31.2°
